TimeCST,TemperatureF,Dew PointF,Humidity,Sea Level PressureIn,VisibilityMPH,Wind Direction,Wind SpeedMPH,Gust SpeedMPH,PrecipitationIn,Events,Conditions,WindDirDegrees,DateUTC
12:00 AM,71,70,96,29.93,12,Calm,Calm,,,,Clear,,2012-12-07 06:00:00
3:00 AM,68,67,95,29.89,12,Calm,Calm,,,,Clear,,2012-12-07 09:00:00
5:00 AM,68.0,68.0,100,29.89,-9999.0,West,2.3,-,N/A,Fog,Fog,280,2012-12-07 11:00:00
6:00 AM,,66,,29.91,0,North,108.2,,,,,10,2012-12-07 12:00:00
6:00 AM,66.2,66.2,100,29.89,0.1,Calm,Calm,-,N/A,Fog,Fog,0,2012-12-07 12:00:00
6:30 AM,66.2,66.2,100,29.92,6.2,Calm,Calm,-,N/A,,Partly Cloudy,0,2012-12-07 12:30:00
7:00 AM,68.0,66.2,94,29.92,6.2,Calm,Calm,-,N/A,,Partly Cloudy,0,2012-12-07 13:00:00
8:00 AM,71.6,69.8,94,29.95,6.2,WSW,2.3,-,N/A,,Partly Cloudy,250,2012-12-07 14:00:00
9:00 AM,77,72,79,29.96,12,Calm,Calm,,,,Scattered Clouds,,2012-12-07 15:00:00
9:00 AM,77.0,71.6,83,29.96,6.2,Calm,Calm,-,N/A,,Partly Cloudy,0,2012-12-07 15:00:00
10:00 AM,82.4,71.6,70,29.95,6.2,Calm,Calm,-,N/A,,Partly Cloudy,0,2012-12-07 16:00:00
11:00 AM,82.4,69.8,66,29.93,6.2,ESE,5.8,-,N/A,,Scattered Clouds,110,2012-12-07 17:00:00
12:00 PM,84,69,52,29.91,12,SSE,4.6,,,,Partly Cloudy,150,2012-12-07 18:00:00
12:00 PM,84.2,69.8,62,29.91,6.2,SSE,4.6,-,N/A,,Scattered Clouds,150,2012-12-07 18:00:00
1:00 PM,84.2,71.6,66,29.88,6.2,ESE,5.8,-,N/A,,Scattered Clouds,110,2012-12-07 19:00:00
2:00 PM,82.4,69.8,66,29.86,6.2,ESE,9.2,-,N/A,,Scattered Clouds,110,2012-12-07 20:00:00
3:00 PM,80,71,66,29.86,12,East,8.1,,,,Partly Cloudy,90,2012-12-07 21:00:00
3:00 PM,80.6,71.6,74,29.86,6.2,East,8.1,-,N/A,,Scattered Clouds,90,2012-12-07 21:00:00
4:00 PM,80.6,69.8,70,29.86,6.2,East,6.9,-,N/A,,Partly Cloudy,100,2012-12-07 22:00:00
5:00 PM,78.8,69.8,74,29.87,6.2,East,4.6,-,N/A,,Partly Cloudy,90,2012-12-07 23:00:00
6:00 PM,76,70,76,29.88,12,East,4.6,,,,Scattered Clouds,100,2012-12-08 00:00:00
6:00 PM,75.2,69.8,83,29.87,6.2,East,4.6,-,N/A,,Partly Cloudy,100,2012-12-08 00:00:00
9:00 PM,84,70,53,29.93,12,Calm,Calm,,,,Clear,,2012-12-08 03:00:00